Location: Newark
(52.4787°S, 179.0532°W)
Time: 15:42:35
(UTC+00:00)

Vanguard 1 - Pass Details

Date: 23 November 2019
Orbit: 652 x 3832 km, 34.3° (Epoch: 09 December)

Event Time Altitude Azimuth Distance (km) Brightness Sun altitude
Rises 10:00:07 0° 311° (NW) 4,995 13.5 -13.9°
Reaches altitude 10° 10:03:14 10° 319° (NW) 4,375 13.1 -14.1°
Maximum altitude 10:14:33 37° 20° (NNE) 3,806 12.5 -14.7°
Drops below altitude 10° 10:32:06 10° 76° (ENE) 6,718 14.0 -15.6°
Sets 10:38:24 0° 82° (E) 7,931 14.5 -15.9°
